[[{"header":{"parameterUnit":"m.s-1","parameterCategory":2,"la1":30.2991,"la2":30.254,"lo1":-89.0895,"lo2":-89.0444,"dy":0.0017,"dx":0.0017,"nx":28,"ny":28,"refTime":"2024-05-07T03:00:00:Z","depth":"0","parameterNumber":2,"parameterNumberName":"U-component_of_CURRENTS"},"data":[0,0,0,0,0,0,0,0,0,0,0,0,0,0,0,0,0,0,0,0,0,0,0,0,0,0,0,0,0,0,0,0,0,0,0,0,0,0,0,0,0,0,0,0,0,0,0,0,0,0,0,0,0,0,0,0,0,0,0.2745,0.2745,0,0.2773,0.2773,0.2773,0.2763,0.2762,0.2762,0.2762,0.282,0.2822,0.2824,0,0,0,0,0,0,0,0,0,0,0,0,0,0.2685,0.2686,0.2745,0.2745,0.2746,0.2773,0.2773,0.2773,0.2763,0.2762,0.2762,0.2761,0.2819,0.2822,0.2824,0,0,0,0,0,0,0,0,0,0,0,0,0,0.2709,0.2686,0.2745,0.2746,0.2747,0.2773,0.2773,0.2773,0.2763,0.2762,0.2762,0.2761,0.2819,0.2821,0.2824,0.2852,0,0,0.2833,0.2834,0,0,0,0,0,0,0,0,0.2707,0.2711,0.2745,0.2746,0.2747,0.2766,0.2773,0.2802,0.2763,0.2754,0.2762,0.2761,0.2807,0.2811,0.2813,0.2855,0.2857,0.2833,0.2835,0.2836,0.2837,0,0,0,0,0,0,0,0.2706,0.2709,0.2753,0.2746,0.2747,0.2747,0.2749,0.2778,0.2781,0.2754,0.2754,0.2763,0.2807,0.281,0.2814,0.2858,0.2833,0.2835,0.2837,0.2838,0.2987,0.299,0,0,0,0,0,0,0.2709,0.2708,0.2752,0.2754,0.2729,0.2749,0.2751,0.2758,0.278,0.2784,0.2763,0.2762,0.2805,0.2811,0.2816,0.2903,0.2836,0.2838,0.284,0.2985,0.2988,0.299,0,0,0,0,0,0,0.2708,0.2713,0.2751,0.2734,0.2739,0.275,0.2758,0.2759,0.2767,0.2787,0.279,0.2771,0.2805,0.2812,0.2858,0.2903,0.284,0.2842,0.2982,0.2986,0.2989,0.3043,0,0,0,0,0,0,0.2706,0.2712,0.2718,0.2734,0.274,0.2778,0.2759,0.276,0.2774,0.2773,0.2796,0.28,0.2805,0.2854,0.2861,0.2906,0.2845,0.298,0.2984,0.2988,0.3038,0.3048,0.3056,0,0,0,0,0,0.2704,0.2713,0.2718,0.2724,0.2748,0.2779,0.2783,0.2786,0.2775,0.2789,0.2806,0.2799,0.2886,0.2858,0.2866,0.2912,0.2978,0.2983,0.2988,0.3034,0.3046,0.3055,0,0,0,0,0,0,0.2689,0.2714,0.272,0.2736,0.2763,0.2779,0.279,0.2793,0.2815,0.2813,0.2823,0.283,0.2893,0.2895,0.2864,0.297,0.2934,0.294,0.2966,0.2977,0.2986,0.2969,0.2847,0,0,0,0,0,0.2691,0.2705,0.2733,0.2748,0.2762,0.2778,0.2789,0.2796,0.2818,0.2825,0.2842,0.2872,0.292,0.294,0.2976,0.3027,0.3021,0.3065,0.3073,0.3081,0.3074,0.3094,0.3103,0.3007,0.3007,0.3007,0,0,0.269,0.2706,0.2714,0.2747,0.2763,0.2795,0.2783,0.2808,0.284,0.2832,0.2875,0.2904,0.2942,0.3005,0.3033,0.3011,0.3113,0.3087,0.3093,0.3082,0.31,0.3109,0.3117,0.3011,0.301,0.3009,0,0,0.2697,0.2711,0.2727,0.2754,0.2788,0.2807,0.2819,0.2846,0.2864,0.2909,0.2926,0.2975,0.3027,0.307,0.3098,0.3176,0.3161,0.3197,0.3223,0.3243,0.325,0.3256,0.3285,0.3293,0.3197,0.3197,0.3197,0,0.2695,0.2721,0.2739,0.2766,0.2793,0.2816,0.2849,0.2879,0.2918,0.2942,0.293,0.3026,0.3059,0.3148,0.3181,0.3196,0.32,0.3178,0.3252,0.3258,0.3263,0.329,0.3298,0.32,0.3199,0.3199,0.3199,0,0.2718,0.2743,0.2758,0.2803,0.2836,0.2869,0.2917,0.2951,0.2971,0.2995,0.3071,0.3111,0.3162,0.3198,0.3214,0.329,0.3281,0.3262,0.3217,0.3275,0.3301,0.3309,0.3204,0.3203,0.3202,0.3202,0,0,0.2703,0.2761,0.2766,0.2792,0.2859,0.2884,0.2953,0.3017,0.3058,0.3093,0.3143,0.3233,0.3236,0.3269,0.3303,0.3327,0.3388,0.3311,0.3311,0.3325,0.3437,0.3452,0.3461,0.3373,0.3374,0.3375,0.3448,0,0.2719,0.2764,0.2798,0.2855,0.2888,0.294,0.3002,0.3061,0.3111,0.3165,0.3211,0.3275,0.3272,0.3307,0.3331,0.3386,0.3406,0.337,0.339,0.3391,0.3384,0.347,0.3427,0.349,0.3455,0.3456,0.3457,0,0.2732,0.2763,0.281,0.2883,0.2902,0.2941,0.3035,0.3096,0.3187,0.3222,0.3276,0.3311,0.3391,0.3358,0.344,0.3415,0.3425,0.3445,0.3447,0.3441,0.3419,0.3423,0.3504,0.3484,0.3468,0.3467,0.3466,0,0.2705,0.2773,0.2806,0.2831,0.2916,0.295,0.3006,0.3104,0.317,0.3262,0.3312,0.3377,0.3438,0.3448,0.3507,0.3472,0.3578,0.3531,0.3548,0.355,0.3507,0.3503,0.3554,0.3557,0.3557,0.3557,0.3557,0,0.2709,0.2736,0.279,0.2806,0.286,0.2929,0.3003,0.3072,0.3182,0.3254,0.3333,0.341,0.3461,0.3532,0.3533,0.359,0.3599,0.3572,0.3575,0.353,0.3527,0.3499,0.3468,0.3559,0.3559,0.3558,0.3558,0,0.2677,0.2711,0.2749,0.282,0.2844,0.2882,0.2997,0.305,0.317,0.327,0.3306,0.346,0.3561,0.3614,0.3673,0.3654,0.3613,0.369,0.3647,0.3643,0.3612,0.3585,0.3418,0.332,0.3711,0.3712,0.3712,0,0.2664,0.2676,0.2735,0.2752,0.2781,0.2847,0.2892,0.3021,0.3085,0.3295,0.3334,0.3502,0.3591,0.3725,0.3747,0.3775,0.3651,0.3731,0.365,0.363,0.3601,0.3394,0.3307,0.3625,0.3625,0.3625,0.3625,0,0.2636,0.2647,0.2671,0.2708,0.274,0.2788,0.2864,0.2916,0.3066,0.3178,0.3335,0.3441,0.3627,0.3687,0.3769,0.3764,0.36,0.373,0.3715,0.3553,0.3321,0.3223,0.3567,0.3624,0.3624,0.3624,0.3624,0.3624,0.2598,0.2604,0.2623,0.2651,0.2683,0.2703,0.2715,0.281,0.2909,0.3043,0.3222,0.3359,0.3593,0.3726,0.3697,0.3716,0.3591,0.3654,0.363,0.3426,0.3299,0.3656,0.371,0.3711,0.3711,0.3712,0.3712,0,0.2538,0.2546,0.2568,0.258,0.2572,0.2622,0.2668,0.2663,0.272,0.2921,0.3048,0.3316,0.3445,0.3591,0.3743,0.3665,0.3425,0.3589,0.3307,0.3231,0.3591,0.3562,0.3581,0.3581,0.3581,0.3581,0.3581,0.3581,0.2503,0.2487,0.2493,0.2452,0.246,0.2414,0.2412,0.2432,0.2545,0.2698,0.2874,0.3035,0.3423,0.3703,0.3732,0.3642,0.3374,0.3239,0.3166,0.35,0.3503,0.3506,0.3474,0.3473,0.3473,0.2686,0.2681,0.2677]},{"header":{"parameterUnit":"m.s-1","parameterCategory":2,"la1":30.2991,"la2":30.254,"lo1":-89.0895,"lo2":-89.0444,"dy":0.0017,"dx":0.0017,"nx":28,"ny":28,"refTime":"2024-05-07T03:00:00:Z","depth":"0","parameterNumber":3,"parameterNumberName":"V-component_of_CURRENTS"},"data":[0,0,0,0,0,0,0,0,0,0,0,0,0,0,0,0,0,0,0,0,0,0,0,0,0,0,0,0,0,0,0,0,0,0,0,0,0,0,0,0,0,0,0,0,0,0,0,0,0,0,0,0,0,0,0,0,0,0,0.018,0.0179,0,0.0107,0.0106,0.0105,0.0059,0.0058,0.0058,0.0058,-0.0035,-0.0037,-0.0039,0,0,0,0,0,0,0,0,0,0,0,0,0,0.0223,0.0223,0.018,0.0179,0.0178,0.0107,0.0106,0.0105,0.0059,0.0058,0.0058,0.0058,-0.0034,-0.0037,-0.0039,0,0,0,0,0,0,0,0,0,0,0,0,0,0.0182,0.0223,0.018,0.0147,0.0144,0.0107,0.0106,0.0105,0.0059,0.0058,0.0058,0.0058,-0.0033,-0.0036,-0.004,-0.0056,0,0,-0.005,-0.0052,0,0,0,0,0,0,0,0,0.0184,0.018,0.0153,0.015,0.0145,0.0093,0.0087,0.005,0.0059,0.009,0.0058,0.0058,0.0007,0.0,-0.0014,-0.006,-0.0064,-0.0051,-0.0053,-0.0054,-0.0055,0,0,0,0,0,0,0,0.0187,0.0183,0.015,0.0152,0.0148,0.0117,0.0112,0.008,0.0049,0.0087,0.0084,0.0078,0.0005,-0.0011,-0.0017,-0.0066,-0.0051,-0.0054,-0.0056,-0.0057,-0.0105,-0.0104,0,0,0,0,0,0,0.0202,0.0186,0.0152,0.0148,0.0166,0.0117,0.0111,0.0109,0.005,0.0041,0.0078,0.0076,-0.0005,-0.0013,-0.002,-0.0013,-0.0054,-0.0057,-0.0059,-0.0106,-0.0105,-0.0104,0,0,0,0,0,0,0.0203,0.02,0.0155,0.0165,0.0158,0.0117,0.0115,0.0108,0.0095,0.0044,0.0034,0.0074,-0.0005,-0.0015,-0.0037,-0.0018,-0.0059,-0.0062,-0.0107,-0.0106,-0.0104,-0.0018,0,0,0,0,0,0,0.0205,0.0201,0.0205,0.0167,0.0158,0.0145,0.0115,0.0106,0.0092,0.0089,0.0037,0.0028,-0.0006,-0.0032,-0.0041,-0.0024,-0.0065,-0.0108,-0.0106,-0.0105,-0.0022,-0.0014,-0.0007,0,0,0,0,0,0.0206,0.0217,0.0206,0.0202,0.0166,0.0146,0.0139,0.0107,0.0093,0.0094,0.0061,0.003,-0.0029,-0.0034,-0.0045,-0.0028,-0.0109,-0.0107,-0.0105,-0.0025,-0.0015,-0.0007,0,0,0,0,0,0,0.0236,0.0212,0.0199,0.0201,0.0181,0.0139,0.0136,0.0114,0.0088,0.0086,0.0035,0.0024,0.0011,-0.002,-0.0025,-0.0037,-0.0072,-0.0072,-0.0007,0.0001,0.0008,0.0032,-0.0068,0,0,0,0,0,0.0247,0.0249,0.0219,0.0221,0.0214,0.0177,0.0164,0.0146,0.0116,0.0104,0.0068,0.0034,0.001,-0.0003,-0.0034,-0.0042,-0.0083,-0.0037,-0.0029,-0.0023,-0.001,-0.0063,-0.0059,-0.0098,-0.0098,-0.0098,0,0,0.0258,0.0246,0.0246,0.0228,0.0208,0.0214,0.0169,0.0159,0.0166,0.0098,0.0095,0.0055,0.0012,0.0005,-0.0003,-0.0018,-0.0032,-0.002,-0.0014,-0.0005,-0.006,-0.0057,-0.0053,-0.0097,-0.0097,-0.0097,0,0,0.0289,0.0274,0.0289,0.0277,0.0258,0.0242,0.0245,0.021,0.0196,0.0184,0.0143,0.0118,0.0074,0.0054,0.0036,0.0066,0.0005,0.0055,0.0114,0.0064,0.0066,0.0068,0.0025,0.0022,0.0063,0.0063,0.0063,0,0.0304,0.032,0.029,0.0301,0.0304,0.0263,0.0285,0.0267,0.0231,0.0227,0.0197,0.0141,0.0101,0.0099,0.0111,0.0083,0.0043,0.0085,0.0073,0.0074,0.0075,0.0029,0.0025,0.0067,0.0067,0.0066,0.0066,0,0.0344,0.0359,0.0367,0.0376,0.0375,0.0385,0.0364,0.0361,0.0338,0.0315,0.0296,0.0237,0.0206,0.019,0.0159,0.0153,0.012,0.0085,0.0053,0.0084,0.0034,0.0028,0.0074,0.0072,0.0071,0.007,0,0,0.0376,0.0394,0.0398,0.0422,0.0417,0.0425,0.0443,0.0447,0.0466,0.0414,0.0426,0.0372,0.033,0.0309,0.0261,0.0221,0.0187,0.0164,0.0159,0.0124,0.0075,0.0074,0.0066,0.0143,0.0143,0.0142,0.004,0,0.042,0.0469,0.0464,0.052,0.0548,0.0527,0.0553,0.0549,0.0531,0.053,0.0464,0.0449,0.0379,0.0366,0.0316,0.0223,0.0175,0.0218,0.0047,0.0043,0.004,0.0061,0.0089,0.0002,0.0034,0.0033,0.0032,0,0.0463,0.0495,0.0555,0.0607,0.0617,0.0642,0.0681,0.07,0.0685,0.0667,0.0631,0.057,0.0517,0.0445,0.0298,0.0326,0.0213,0.0129,0.0122,0.0088,0.003,-0.0026,-0.0011,-0.0168,0.0023,0.0023,0.0024,0,0.051,0.0563,0.062,0.0631,0.0676,0.0702,0.0732,0.0739,0.0779,0.0754,0.0772,0.0673,0.0644,0.0488,0.032,0.03,0.0152,0.0095,-0.0016,-0.0018,-0.0041,-0.0044,-0.0193,-0.0019,-0.0019,-0.0018,-0.0018,0,0.0563,0.0609,0.0646,0.0675,0.0759,0.0764,0.0847,0.0855,0.0887,0.0958,0.0851,0.0877,0.0652,0.0542,0.0358,0.0172,0.0173,0.0004,-0.004,-0.001,-0.0008,-0.0185,-0.0304,-0.0022,-0.0021,-0.0021,-0.002,0,0.0608,0.0627,0.0699,0.0756,0.0783,0.0844,0.0943,0.1002,0.1018,0.1108,0.1108,0.1029,0.0884,0.0656,0.041,0.0245,-0.006,-0.0027,0.0032,-0.0002,-0.0255,-0.037,-0.0588,-0.0691,-0.0173,-0.0174,-0.0174,0,0.0636,0.0676,0.0761,0.0817,0.0847,0.0939,0.101,0.1062,0.1138,0.1217,0.1269,0.1163,0.1119,0.0764,0.043,0.0106,-0.0082,-0.0077,-0.0113,-0.0254,-0.0416,-0.0492,-0.0569,-0.0119,-0.0119,-0.0119,-0.0119,0,0.0698,0.0721,0.0781,0.0895,0.0976,0.1088,0.1194,0.1281,0.1365,0.1449,0.1535,0.151,0.1184,0.0886,0.0446,0.0206,-0.0199,-0.0087,-0.0257,-0.0398,-0.0469,-0.0592,-0.0067,-0.0119,-0.0119,-0.0119,-0.0119,-0.0119,0.0739,0.0797,0.0874,0.0985,0.1086,0.1227,0.1336,0.146,0.1616,0.1768,0.1733,0.1763,0.1338,0.0741,0.0387,-0.0187,-0.0234,-0.0347,-0.0479,-0.0544,-0.063,-0.0091,-0.0175,-0.0175,-0.0175,-0.0176,-0.0176,0,0.0796,0.0863,0.0966,0.11,0.1218,0.1266,0.1454,0.1577,0.1775,0.1925,0.2004,0.1875,0.1309,0.0747,-0.0033,-0.0463,-0.0651,-0.0708,-0.0819,-0.0886,-0.0419,-0.0399,-0.0503,-0.0503,-0.0503,-0.0502,-0.0502,-0.0502,0.083,0.0932,0.0986,0.1185,0.1286,0.1462,0.1579,0.1767,0.1924,0.2149,0.224,0.2259,0.1915,0.042,-0.0544,-0.0813,-0.1145,-0.122,-0.1398,-0.1076,-0.1052,-0.1029,-0.1035,-0.127,-0.1272,-0.1782,-0.1788,-0.1792]}],[{"header":{"parameterUnit":"m.s-1","parameterCategory":2,"la1":30.2991,"la2":30.254,"lo1":-89.0895,"lo2":-89.0444,"dy":0.0017,"dx":0.0017,"nx":28,"ny":28,"refTime":"2024-05-07T03:00:00:Z","depth":"2","parameterNumber":2,"parameterNumberName":"U-component_of_CURRENTS"},"data":[0,0,0,0,0,0,0,0,0,0,0,0,0,0,0,0,0,0,0,0,0,0,0,0,0,0,0,0,0,0,0,0,0,0,0,0,0,0,0,0,0,0,0,0,0,0,0,0,0,0,0,0,0,0,0,0,0,0,0.2669,0.2669,0,0.2696,0.2696,0.2696,0.269,0.269,0.269,0.269,0.2748,0.2749,0.2751,0,0,0,0,0,0,0,0,0,0,0,0,0,0.2611,0.2612,0.2669,0.2669,0.267,0.2696,0.2696,0.2696,0.269,0.269,0.269,0.269,0.2747,0.2749,0.2751,0,0,0,0,0,0,0,0,0,0,0,0,0,0.2634,0.2612,0.2669,0.2673,0.2674,0.2696,0.2696,0.2696,0.269,0.269,0.269,0.269,0.2746,0.2749,0.2751,0.2773,0,0,0.2759,0.276,0,0,0,0,0,0,0,0,0.2632,0.2635,0.2672,0.2673,0.2674,0.2692,0.2697,0.2724,0.269,0.2681,0.269,0.2689,0.2734,0.2738,0.2738,0.2776,0.2778,0.2759,0.2761,0.2762,0.2763,0,0,0,0,0,0,0,0.2631,0.2634,0.2676,0.2672,0.2674,0.2673,0.2675,0.2701,0.2707,0.2682,0.2682,0.269,0.2734,0.2736,0.274,0.2779,0.2759,0.2762,0.2763,0.2764,0.2904,0.2906,0,0,0,0,0,0,0.2635,0.2633,0.2675,0.2677,0.2655,0.2674,0.2677,0.2684,0.2706,0.271,0.269,0.269,0.2732,0.2737,0.2742,0.2828,0.2762,0.2765,0.2766,0.2902,0.2904,0.2907,0,0,0,0,0,0,0.2633,0.2638,0.2674,0.2658,0.2663,0.2676,0.2683,0.2685,0.2695,0.2713,0.2716,0.27,0.2732,0.2738,0.2781,0.2828,0.2766,0.2768,0.2899,0.2903,0.2906,0.2963,0,0,0,0,0,0,0.2631,0.2637,0.2644,0.2659,0.2664,0.27,0.2684,0.2685,0.2701,0.2701,0.2723,0.2727,0.2732,0.2777,0.2784,0.283,0.277,0.2896,0.2901,0.2905,0.2958,0.2968,0.2976,0,0,0,0,0,0.2629,0.2639,0.2644,0.265,0.2673,0.2702,0.2705,0.271,0.2702,0.2715,0.2731,0.2727,0.2808,0.2781,0.2788,0.2837,0.2895,0.2899,0.2904,0.2954,0.2966,0.2975,0,0,0,0,0,0,0.2616,0.264,0.2646,0.2662,0.2688,0.2702,0.2714,0.2717,0.2738,0.2739,0.2748,0.2754,0.2816,0.2817,0.2786,0.289,0.2854,0.286,0.289,0.2901,0.2909,0.2892,0.2772,0,0,0,0,0,0.2618,0.2632,0.2659,0.2674,0.2687,0.2702,0.2714,0.2722,0.2742,0.2749,0.2766,0.2794,0.2841,0.286,0.2893,0.2942,0.2935,0.2981,0.299,0.2997,0.299,0.3008,0.3017,0.2923,0.2923,0.2922,0,0,0.2618,0.2633,0.2641,0.2672,0.2688,0.2718,0.2708,0.2733,0.2763,0.2755,0.2798,0.2827,0.2862,0.2923,0.295,0.2928,0.3028,0.3003,0.3009,0.2998,0.3014,0.3022,0.303,0.2926,0.2925,0.2925,0,0,0.2624,0.2639,0.2654,0.2679,0.2713,0.2731,0.2742,0.2769,0.2787,0.283,0.2848,0.2896,0.2945,0.2987,0.3013,0.3089,0.3076,0.3111,0.3138,0.3157,0.3164,0.317,0.3197,0.3205,0.3111,0.3111,0.3112,0,0.2623,0.2647,0.2665,0.269,0.2716,0.274,0.2771,0.2799,0.2837,0.286,0.2851,0.2944,0.2976,0.3061,0.3095,0.3109,0.3113,0.3094,0.3165,0.3171,0.3176,0.3203,0.3211,0.3115,0.3114,0.3114,0.3114,0,0.2643,0.2667,0.2681,0.2724,0.2755,0.2786,0.2832,0.2865,0.2886,0.291,0.2985,0.3025,0.3075,0.3112,0.3128,0.3203,0.3195,0.3176,0.3131,0.3189,0.3214,0.3221,0.312,0.3118,0.3117,0.3117,0,0,0.2629,0.2684,0.2689,0.2714,0.2776,0.2801,0.2864,0.2925,0.2964,0.3001,0.305,0.3139,0.3147,0.3178,0.3214,0.3238,0.33,0.3225,0.3225,0.324,0.3348,0.3352,0.336,0.3287,0.3288,0.3289,0.3359,0,0.2642,0.2685,0.2717,0.277,0.2802,0.2851,0.2908,0.2965,0.3013,0.3066,0.3114,0.3179,0.3179,0.3218,0.3242,0.3297,0.3318,0.3283,0.33,0.3301,0.3287,0.3368,0.3113,0.3155,0.3366,0.3367,0.3368,0,0.2652,0.2683,0.2728,0.2797,0.2816,0.2853,0.2942,0.2999,0.3086,0.3121,0.3176,0.3213,0.3294,0.3265,0.3347,0.3324,0.3337,0.3356,0.3358,0.334,0.3318,0.3129,0.3159,0.3379,0.3378,0.3378,0.3377,0,0.2626,0.2691,0.2724,0.2748,0.2829,0.2863,0.2918,0.301,0.3074,0.3163,0.3212,0.3278,0.334,0.3352,0.3412,0.338,0.3481,0.3438,0.3446,0.3446,0.3221,0.32,0.3463,0.3463,0.3462,0.3462,0.3462,0,0.2627,0.2655,0.2711,0.2728,0.2781,0.2849,0.2921,0.2986,0.3093,0.3162,0.3238,0.3307,0.3363,0.3431,0.3435,0.3488,0.35,0.3467,0.3469,0.324,0.3221,0.3396,0.3388,0.3465,0.3464,0.3464,0.3463,0,0.2595,0.2631,0.267,0.2742,0.2767,0.2807,0.2921,0.2972,0.3088,0.3183,0.322,0.3359,0.3453,0.3508,0.3566,0.3545,0.3575,0.3577,0.3322,0.3293,0.3514,0.3508,0.3585,0.3585,0.3586,0.3587,0.3587,0,0.2583,0.2596,0.2658,0.2678,0.271,0.2778,0.2822,0.2948,0.301,0.3206,0.3241,0.3398,0.3469,0.3592,0.3586,0.3608,0.3627,0.3379,0.3271,0.3535,0.3529,0.3522,0.3515,0.2997,0.2993,0.2989,0.2986,0,0.2558,0.2572,0.2597,0.2637,0.2673,0.2721,0.2798,0.2846,0.2991,0.3088,0.3223,0.3311,0.3458,0.3396,0.3465,0.3424,0.3357,0.3311,0.364,0.3027,0.2993,0.2984,0.2993,0.2954,0.2958,0.296,0.2962,0.2963,0.2524,0.2533,0.2555,0.2585,0.2619,0.2639,0.2648,0.2733,0.2817,0.2912,0.308,0.3127,0.32,0.3191,0.3107,0.305,0.327,0.3104,0.3109,0.3119,0.306,0.3031,0.2989,0.2992,0.2995,0.2997,0.3,0,0.2469,0.2483,0.2505,0.2519,0.2506,0.2563,0.2604,0.2575,0.2607,0.2743,0.2828,0.2663,0.2673,0.273,0.2621,0.2649,0.2546,0.2519,0.2354,0.2392,0.2425,0.2322,0.2059,0.2055,0.2051,0.2048,0,0,0.2438,0.2424,0.2429,0.2385,0.2398,0.2351,0.2345,0.2321,0.2377,0.2348,0.2371,0.2577,0.2713,0.2358,0.2328,0.2181,0.2251,0.209,0.2863,0.2712,0.2739,0.2804,0.2698,0,0,0,0,0]},{"header":{"parameterUnit":"m.s-1","parameterCategory":2,"la1":30.2991,"la2":30.254,"lo1":-89.0895,"lo2":-89.0444,"dy":0.0017,"dx":0.0017,"nx":28,"ny":28,"refTime":"2024-05-07T03:00:00:Z","depth":"2","parameterNumber":3,"parameterNumberName":"V-component_of_CURRENTS"},"data":[0,0,0,0,0,0,0,0,0,0,0,0,0,0,0,0,0,0,0,0,0,0,0,0,0,0,0,0,0,0,0,0,0,0,0,0,0,0,0,0,0,0,0,0,0,0,0,0,0,0,0,0,0,0,0,0,0,0,0.0102,0.0101,0,0.0032,0.0031,0.003,-0.0013,-0.0013,-0.0013,-0.0013,-0.0105,-0.0108,-0.011,0,0,0,0,0,0,0,0,0,0,0,0,0,0.0143,0.0142,0.0102,0.0101,0.01,0.0032,0.0031,0.003,-0.0013,-0.0013,-0.0013,-0.0013,-0.0105,-0.0107,-0.011,0,0,0,0,0,0,0,0,0,0,0,0,0,0.0103,0.0142,0.0102,0.0071,0.0068,0.0033,0.0031,0.003,-0.0013,-0.0013,-0.0013,-0.0014,-0.0104,-0.0107,-0.0111,-0.0128,0,0,-0.0121,-0.0123,0,0,0,0,0,0,0,0,0.0106,0.0102,0.0076,0.0073,0.0069,0.0019,0.0012,-0.0024,-0.0013,0.0017,-0.0013,-0.0014,-0.0065,-0.0072,-0.0086,-0.0132,-0.0136,-0.0121,-0.0124,-0.0125,-0.0126,0,0,0,0,0,0,0,0.0108,0.0104,0.0073,0.0076,0.0071,0.0042,0.0037,0.0005,-0.0023,0.0014,0.0011,0.0005,-0.0067,-0.0082,-0.0088,-0.0137,-0.0121,-0.0124,-0.0127,-0.0128,-0.0178,-0.0177,0,0,0,0,0,0,0.0122,0.0107,0.0075,0.0071,0.0089,0.0042,0.0036,0.0035,-0.0023,-0.0031,0.0005,0.0003,-0.0076,-0.0084,-0.0091,-0.0085,-0.0125,-0.0128,-0.013,-0.0178,-0.0177,-0.0177,0,0,0,0,0,0,0.0124,0.012,0.0078,0.0088,0.0081,0.0042,0.0041,0.0033,0.0022,-0.0029,-0.0038,0.0002,-0.0076,-0.0087,-0.0109,-0.009,-0.013,-0.0133,-0.0179,-0.0178,-0.0177,-0.0092,0,0,0,0,0,0,0.0125,0.0121,0.0126,0.0089,0.0081,0.0069,0.0041,0.0032,0.0019,0.0016,-0.0035,-0.0044,-0.0077,-0.0103,-0.0112,-0.0096,-0.0136,-0.018,-0.0179,-0.0177,-0.0096,-0.0088,-0.0081,0,0,0,0,0,0.0127,0.0137,0.0127,0.0123,0.0089,0.0069,0.0063,0.0033,0.002,0.0021,-0.0011,-0.0042,-0.01,-0.0105,-0.0116,-0.01,-0.0181,-0.0179,-0.0178,-0.0099,-0.009,-0.0082,0,0,0,0,0,0,0.0156,0.0133,0.0121,0.0123,0.0103,0.0063,0.0061,0.004,0.0014,0.0013,-0.0037,-0.0048,-0.0061,-0.0092,-0.0096,-0.011,-0.0144,-0.0144,-0.0081,-0.0072,-0.0065,-0.0042,-0.0139,0,0,0,0,0,0.0166,0.0169,0.0139,0.0142,0.0135,0.01,0.0088,0.007,0.0042,0.003,-0.0005,-0.0038,-0.0063,-0.0076,-0.0107,-0.0115,-0.0156,-0.0111,-0.0103,-0.0097,-0.0085,-0.0138,-0.0134,-0.0171,-0.0171,-0.0171,0,0,0.0177,0.0165,0.0166,0.0149,0.013,0.0135,0.0092,0.0084,0.009,0.0024,0.0021,-0.0018,-0.0061,-0.0069,-0.0077,-0.0091,-0.0107,-0.0095,-0.0089,-0.008,-0.0136,-0.0132,-0.0129,-0.017,-0.017,-0.017,0,0,0.0206,0.0193,0.0207,0.0196,0.0178,0.0163,0.0165,0.0132,0.0119,0.0107,0.0067,0.0043,-0.0,-0.0022,-0.0039,-0.0011,-0.0071,-0.0022,0.0037,-0.0015,-0.0012,-0.0011,-0.0052,-0.0055,-0.0014,-0.0014,-0.0014,0,0.0221,0.0236,0.0208,0.0219,0.0221,0.0183,0.0204,0.0186,0.0151,0.0147,0.012,0.0065,0.0025,0.0021,0.0033,0.0006,-0.0033,0.0008,-0.0005,-0.0005,-0.0004,-0.0048,-0.0052,-0.001,-0.001,-0.0011,-0.0011,0,0.0259,0.0273,0.0281,0.029,0.0289,0.0298,0.0278,0.0275,0.0254,0.0231,0.0213,0.0156,0.0126,0.011,0.008,0.0073,0.0041,0.0006,-0.0025,0.0005,-0.0043,-0.0049,-0.0003,-0.0005,-0.0006,-0.0007,0,0,0.029,0.0307,0.031,0.0334,0.0329,0.0337,0.0353,0.0356,0.0373,0.0324,0.0335,0.0283,0.0245,0.0223,0.0177,0.0137,0.0105,0.0083,0.0078,0.0046,-0.0005,-0.0013,-0.0021,0.0061,0.0061,0.006,-0.0038,0,0.0331,0.0377,0.0373,0.0427,0.0453,0.0433,0.0456,0.0452,0.0435,0.0432,0.0369,0.0355,0.0291,0.0279,0.023,0.0138,0.0092,0.0135,-0.0033,-0.0037,-0.0045,-0.0027,-0.0015,-0.01,-0.0044,-0.0045,-0.0046,0,0.0371,0.0402,0.046,0.0509,0.0519,0.0543,0.0579,0.0596,0.0579,0.0561,0.0528,0.0469,0.0419,0.0352,0.0208,0.0236,0.0128,0.0047,0.004,0.0001,-0.0056,-0.0123,-0.0114,-0.0057,-0.0056,-0.0055,-0.0054,0,0.0416,0.0466,0.0521,0.0533,0.0575,0.0601,0.063,0.0634,0.0672,0.0645,0.0661,0.0566,0.0537,0.0389,0.0227,0.021,0.0061,0.001,-0.0101,-0.0103,-0.014,-0.0144,-0.01,-0.01,-0.01,-0.01,-0.01,0,0.0465,0.0509,0.0547,0.0576,0.0656,0.0661,0.0741,0.0746,0.0776,0.084,0.0737,0.0755,0.0544,0.0434,0.0261,0.0077,0.008,-0.0082,-0.0127,-0.0109,-0.0109,-0.011,-0.011,-0.0104,-0.0103,-0.0102,-0.0101,0,0.0507,0.0526,0.0597,0.0653,0.0679,0.0739,0.0835,0.089,0.0903,0.0983,0.0984,0.0897,0.0752,0.0536,0.0299,0.0141,-0.005,-0.0122,-0.0078,-0.0114,-0.0194,-0.0188,-0.0262,-0.0264,-0.0264,-0.0265,-0.0266,0,0.0533,0.0572,0.0657,0.0712,0.0742,0.0832,0.09,0.0949,0.102,0.1082,0.1126,0.1017,0.0959,0.0612,0.0295,-0.0012,-0.0048,-0.0194,-0.0227,-0.0174,-0.021,-0.0203,-0.0196,-0.0249,-0.0249,-0.0249,-0.025,0,0.0591,0.0615,0.0674,0.0786,0.0866,0.0973,0.1075,0.1155,0.1231,0.1291,0.1352,0.1312,0.0997,0.0683,0.0267,0.0057,-0.0147,-0.0211,-0.0177,-0.0197,-0.0165,-0.0199,-0.0192,-0.0253,-0.0252,-0.0252,-0.0252,-0.0252,0.063,0.0687,0.0764,0.0872,0.0972,0.1104,0.1206,0.1311,0.1439,0.1538,0.1505,0.1454,0.1109,0.0569,0.0207,-0.0174,-0.0159,-0.0298,-0.0295,-0.0293,-0.0261,-0.0231,-0.0325,-0.0325,-0.0326,-0.0326,-0.0326,0,0.0684,0.0754,0.0851,0.0982,0.1092,0.1145,0.1317,0.1402,0.1554,0.1633,0.1669,0.1345,0.1005,0.0617,0.0051,-0.028,-0.0315,-0.0384,-0.0357,-0.0351,-0.0347,-0.0317,-0.0398,-0.0399,-0.0399,-0.04,0,0,0.0718,0.0815,0.0867,0.1054,0.1156,0.1319,0.1426,0.1543,0.1632,0.1674,0.1658,0.1589,0.1134,0.0715,0.0251,-0.0069,-0.0132,-0.0137,-0.0045,0.0046,0.0055,-0.0267,-0.0211,0,0,0,0,0]}],[{"header":{"parameterUnit":"m.s-1","parameterCategory":2,"la1":30.2991,"la2":30.254,"lo1":-89.0895,"lo2":-89.0444,"dy":0.0017,"dx":0.0017,"nx":28,"ny":28,"refTime":"2024-05-07T03:00:00:Z","depth":"4","parameterNumber":2,"parameterNumberName":"U-component_of_CURRENTS"},"data":[0,0,0,0,0,0,0,0,0,0,0,0,0,0,0,0,0,0,0,0,0,0,0,0,0,0,0,0,0,0,0,0,0,0,0,0,0,0,0,0,0,0,0,0,0,0,0,0,0,0,0,0,0,0,0,0,0,0,0.1727,0.1728,0,0.1797,0.1798,0.1798,0.1855,0.1856,0.1857,0.1858,0.1922,0.1923,0.1923,0,0,0,0,0,0,0,0,0,0,0,0,0,0.1632,0.1633,0.1727,0.1728,0.1729,0.1797,0.1798,0.1798,0.1855,0.1856,0.1857,0.1858,0.1921,0.1922,0.1924,0,0,0,0,0,0,0,0,0,0,0,0,0,0.1683,0.1634,0.1727,0.1767,0.1772,0.1797,0.1798,0.1798,0.1855,0.1856,0.1857,0.1859,0.1921,0.1922,0.1924,0.1909,0,0,0.1928,0.1929,0,0,0,0,0,0,0,0,0.168,0.1686,0.176,0.1765,0.177,0.1821,0.1788,0.1836,0.1855,0.1821,0.1858,0.1859,0.1888,0.1892,0.1899,0.1912,0.1914,0.1928,0.1929,0.193,0.193,0,0,0,0,0,0,0,0.1676,0.1683,0.1752,0.1761,0.1767,0.1779,0.1787,0.1797,0.1845,0.1824,0.1829,0.184,0.189,0.1898,0.1901,0.1915,0.1928,0.1929,0.193,0.1931,0.2034,0.2035,0,0,0,0,0,0,0.1671,0.168,0.175,0.1755,0.1729,0.1779,0.1789,0.1801,0.1845,0.1854,0.1839,0.1842,0.1895,0.19,0.1904,0.1987,0.193,0.1931,0.1932,0.2032,0.2034,0.2036,0,0,0,0,0,0,0.1669,0.1677,0.1747,0.172,0.1731,0.178,0.1793,0.1802,0.1848,0.1857,0.1865,0.1881,0.1896,0.1902,0.1951,0.1986,0.1932,0.1933,0.203,0.2032,0.2035,0.2089,0,0,0,0,0,0,0.1666,0.1676,0.17,0.172,0.1732,0.1789,0.1793,0.1803,0.1852,0.1858,0.1895,0.19,0.1897,0.1949,0.1953,0.1987,0.1934,0.2027,0.2031,0.2034,0.2085,0.2093,0.21,0,0,0,0,0,0.1662,0.1683,0.1701,0.1711,0.1758,0.179,0.1798,0.1835,0.1853,0.1879,0.1909,0.1901,0.1974,0.1952,0.1955,0.1991,0.2025,0.203,0.2034,0.2081,0.2092,0.21,0,0,0,0,0,0,0.1656,0.1692,0.1712,0.1745,0.1779,0.1802,0.1834,0.1855,0.1898,0.1916,0.1921,0.1928,0.1985,0.1982,0.1957,0.2033,0.2,0.2005,0.2035,0.2044,0.2052,0.2062,0.1935,0,0,0,0,0,0.1665,0.1695,0.1727,0.1759,0.1779,0.1813,0.1838,0.1864,0.1896,0.1918,0.1945,0.1974,0.1997,0.2018,0.2038,0.2075,0.2084,0.2103,0.2111,0.2118,0.213,0.2177,0.219,0.205,0.205,0.205,0,0,0.1672,0.1697,0.1715,0.1761,0.1792,0.1821,0.1832,0.1882,0.1915,0.1916,0.1982,0.2004,0.2015,0.2061,0.2086,0.2068,0.2162,0.2123,0.2128,0.2137,0.2183,0.2197,0.2209,0.2053,0.2052,0.2052,0,0,0.1686,0.1725,0.1752,0.1783,0.1837,0.1855,0.1877,0.1924,0.1961,0.2017,0.2029,0.2076,0.2115,0.2131,0.214,0.2204,0.2202,0.2216,0.2263,0.231,0.2321,0.2332,0.2356,0.2369,0.2219,0.222,0.222,0,0.1697,0.1729,0.1766,0.1798,0.1826,0.1873,0.1903,0.1942,0.2004,0.2036,0.2051,0.2134,0.2146,0.2194,0.2223,0.2221,0.2244,0.2222,0.2319,0.233,0.234,0.2362,0.2375,0.2223,0.2222,0.2222,0.2222,0,0.1718,0.1758,0.1779,0.1831,0.1867,0.1905,0.1955,0.2006,0.2056,0.2094,0.2178,0.2208,0.2259,0.227,0.2268,0.2345,0.2338,0.2322,0.2292,0.2357,0.2377,0.2389,0.2227,0.2226,0.2225,0.2224,0,0,0.1698,0.1777,0.1788,0.1814,0.1889,0.1911,0.1979,0.2042,0.2098,0.2171,0.2246,0.2298,0.2339,0.2354,0.2367,0.2409,0.2495,0.2407,0.2408,0.2426,0.2598,0.2441,0.2439,0.2506,0.2508,0.251,0.2581,0,0.1705,0.1756,0.18,0.1852,0.1878,0.1942,0.2001,0.2071,0.2143,0.2232,0.229,0.2371,0.2363,0.2412,0.2454,0.2493,0.2532,0.2477,0.2537,0.2539,0.2387,0.245,0.2519,0.259,0.2593,0.2595,0.2597,0,0.1701,0.1737,0.1788,0.186,0.1881,0.1928,0.2025,0.2085,0.2212,0.2281,0.2376,0.2437,0.2529,0.2514,0.2611,0.2583,0.2603,0.2619,0.2621,0.2466,0.2405,0.2514,0.2619,0.2617,0.2615,0.2614,0.2612,0,0.1642,0.1721,0.1759,0.1785,0.1881,0.1928,0.1987,0.2107,0.2174,0.2333,0.2413,0.252,0.2602,0.265,0.2697,0.2674,0.2791,0.2753,0.2624,0.2612,0.2707,0.2695,0.2819,0.2819,0.2819,0.2818,0.2818,0,0.1606,0.1638,0.1743,0.1761,0.1825,0.1906,0.1997,0.2082,0.2221,0.2304,0.2445,0.2522,0.2648,0.2725,0.2739,0.2721,0.2826,0.2644,0.2626,0.2727,0.2717,0.2715,0.2702,0.2821,0.282,0.282,0.2819,0,0.1528,0.1599,0.1645,0.1755,0.18,0.1846,0.199,0.205,0.2206,0.2322,0.2384,0.2561,0.2662,0.275,0.2839,0.2759,0.2764,0.2729,0.2842,0.2827,0.2542,0.2532,0.2582,0.2577,0.2573,0.257,0.2567,0,0.1483,0.1504,0.1628,0.1662,0.1719,0.1811,0.1876,0.2031,0.2097,0.231,0.2349,0.2523,0.2619,0.2626,0.2721,0.2744,0.2709,0.2685,0.2598,0.2543,0.2522,0.2517,0.2512,0.256,0.2559,0.2558,0.2557,0,0.1392,0.1457,0.1503,0.1585,0.1655,0.172,0.1825,0.186,0.2033,0.2192,0.2275,0.2342,0.2455,0.2525,0.2577,0.2577,0.2685,0.2642,0.2649,0.2567,0.2518,0.2499,0.2499,0.2543,0.2545,0.2547,0.2547,0,0.1332,0.1342,0.1421,0.1482,0.1567,0.16,0.167,0.1749,0.1838,0.2066,0.2083,0.2267,0.2425,0.2439,0.2475,0.2483,0.2435,0.2336,0.2358,0.2375,0.2274,0.2179,0.2095,0,0,0,0,0,0.1256,0.1258,0.1304,0.1361,0.1443,0.1498,0.1621,0.1696,0.1864,0.1871,0.1973,0.2067,0.2146,0.224,0.2207,0.2375,0.2439,0.2324,0.2334,0.2465,0.2481,0.2381,0,0,0,0,0,0,0.1202,0.1237,0.126,0.1256,0.1276,0.135,0.1426,0.1539,0.1558,0.1737,0.1802,0.1935,0.2055,0.2151,0.2168,0.2194,0.2154,0.2436,0.243,0.2456,0.2471,0.2484,0.2387,0,0,0,0,0]},{"header":{"parameterUnit":"m.s-1","parameterCategory":2,"la1":30.2991,"la2":30.254,"lo1":-89.0895,"lo2":-89.0444,"dy":0.0017,"dx":0.0017,"nx":28,"ny":28,"refTime":"2024-05-07T03:00:00:Z","depth":"4","parameterNumber":3,"parameterNumberName":"V-component_of_CURRENTS"},"data":[0,0,0,0,0,0,0,0,0,0,0,0,0,0,0,0,0,0,0,0,0,0,0,0,0,0,0,0,0,0,0,0,0,0,0,0,0,0,0,0,0,0,0,0,0,0,0,0,0,0,0,0,0,0,0,0,0,0,0.0012,0.0012,0,-0.0028,-0.0029,-0.0029,-0.0058,-0.0058,-0.0058,-0.0058,-0.0125,-0.0126,-0.0128,0,0,0,0,0,0,0,0,0,0,0,0,0,0.0029,0.0029,0.0012,0.0012,0.0011,-0.0028,-0.0029,-0.0029,-0.0058,-0.0058,-0.0058,-0.0059,-0.0124,-0.0126,-0.0128,0,0,0,0,0,0,0,0,0,0,0,0,0,0.0008,0.0029,0.0012,-0.0008,-0.001,-0.0028,-0.0029,-0.003,-0.0058,-0.0058,-0.0058,-0.0059,-0.0123,-0.0126,-0.0128,-0.0137,0,0,-0.0135,-0.0136,0,0,0,0,0,0,0,0,0.0009,0.0007,-0.0004,-0.0006,-0.0009,-0.0038,-0.0047,-0.0067,-0.0058,-0.004,-0.0059,-0.0059,-0.0098,-0.0102,-0.0109,-0.014,-0.0143,-0.0135,-0.0137,-0.0138,-0.0139,0,0,0,0,0,0,0,0.0011,0.0009,-0.0004,-0.0005,-0.0007,-0.0027,-0.003,-0.0051,-0.0067,-0.0042,-0.0044,-0.0047,-0.0099,-0.0107,-0.0111,-0.0144,-0.0135,-0.0137,-0.0139,-0.014,-0.0175,-0.0175,0,0,0,0,0,0,0.0019,0.001,-0.0003,-0.0005,0.0,-0.0026,-0.003,-0.0029,-0.0067,-0.0072,-0.0047,-0.0049,-0.0103,-0.0108,-0.0113,-0.0111,-0.0138,-0.014,-0.0141,-0.0176,-0.0175,-0.0175,0,0,0,0,0,0,0.0019,0.0018,-0.0001,0.0001,-0.0002,-0.0026,-0.0025,-0.0029,-0.0036,-0.0071,-0.0077,-0.0049,-0.0103,-0.011,-0.0126,-0.0114,-0.0141,-0.0143,-0.0176,-0.0176,-0.0175,-0.0115,0,0,0,0,0,0,0.002,0.0019,0.0023,0.0002,-0.0002,-0.0005,-0.0025,-0.003,-0.0038,-0.004,-0.0074,-0.0081,-0.0104,-0.0122,-0.0128,-0.0118,-0.0145,-0.0177,-0.0176,-0.0175,-0.0117,-0.0112,-0.0108,0,0,0,0,0,0.0021,0.003,0.0023,0.0022,0.0004,-0.0004,-0.0008,-0.0027,-0.0037,-0.0035,-0.0058,-0.008,-0.0121,-0.0124,-0.0131,-0.0121,-0.0177,-0.0176,-0.0175,-0.012,-0.0113,-0.0108,0,0,0,0,0,0,0.0037,0.0027,0.002,0.0025,0.0014,-0.0009,-0.0009,-0.0023,-0.0039,-0.0041,-0.0076,-0.0083,-0.0093,-0.0115,-0.0118,-0.0128,-0.0152,-0.0152,-0.0107,-0.0102,-0.0097,-0.0079,-0.0147,0,0,0,0,0,0.0044,0.0049,0.0034,0.0038,0.0035,0.0014,0.0007,-0.0003,-0.0021,-0.0029,-0.0053,-0.0077,-0.0094,-0.0104,-0.0125,-0.0131,-0.0163,-0.0129,-0.0124,-0.012,-0.0111,-0.0155,-0.0153,-0.0171,-0.0171,-0.0171,0,0,0.0051,0.0046,0.0049,0.0042,0.0032,0.0039,0.0009,0.0006,0.0012,-0.0034,-0.0035,-0.0062,-0.0093,-0.0098,-0.0105,-0.0115,-0.0131,-0.0119,-0.0115,-0.0108,-0.0154,-0.0152,-0.0151,-0.017,-0.017,-0.0171,0,0,0.0071,0.0065,0.0077,0.0074,0.0065,0.0057,0.0059,0.0041,0.0032,0.0027,-0.0003,-0.0022,-0.0049,-0.0068,-0.0081,-0.0063,-0.0105,-0.0068,-0.0028,-0.0071,-0.0069,-0.0069,-0.0105,-0.0108,-0.0064,-0.0063,-0.0063,0,0.0079,0.0093,0.0079,0.009,0.0094,0.007,0.0087,0.0077,0.0056,0.0053,0.0035,-0.0003,-0.0033,-0.0039,-0.0031,-0.0051,-0.008,-0.0046,-0.0064,-0.0064,-0.0065,-0.0102,-0.0106,-0.006,-0.0061,-0.0061,-0.0061,0,0.0107,0.012,0.0127,0.0139,0.0143,0.0151,0.0141,0.0141,0.0128,0.0114,0.0101,0.0058,0.0037,0.0024,0.0003,-0.0008,-0.0029,-0.0055,-0.0078,-0.0059,-0.01,-0.0105,-0.0056,-0.0057,-0.0058,-0.0059,0,0,0.0121,0.0143,0.0146,0.0163,0.0169,0.0176,0.0192,0.0197,0.0208,0.0179,0.0186,0.0147,0.0121,0.0104,0.007,0.0035,0.0002,-0.0002,-0.0006,-0.0035,-0.0088,-0.0095,-0.0102,-0.0027,-0.0028,-0.0028,-0.0114,0,0.0147,0.0183,0.0188,0.0227,0.0246,0.024,0.026,0.0262,0.0253,0.0253,0.0208,0.0199,0.0153,0.0145,0.0104,0.003,-0.0009,0.0028,-0.0103,-0.0107,-0.0114,-0.0108,-0.003,-0.0118,-0.012,-0.0121,-0.0121,0,0.0171,0.0195,0.0238,0.0276,0.0284,0.0307,0.0336,0.0351,0.0347,0.0337,0.0318,0.0281,0.024,0.0193,0.0075,0.0102,0.0017,-0.0048,-0.0053,-0.0083,-0.0124,-0.0143,-0.0132,-0.0131,-0.013,-0.013,-0.0129,0,0.0188,0.0229,0.0267,0.0278,0.0318,0.034,0.0364,0.0376,0.04,0.0395,0.0404,0.0342,0.0316,0.0207,0.0078,0.0074,-0.006,-0.0089,-0.0176,-0.0178,-0.0173,-0.0173,-0.0178,-0.0178,-0.0178,-0.0178,-0.0178,0,0.021,0.024,0.0279,0.03,0.0355,0.0372,0.0428,0.0438,0.0465,0.05,0.0452,0.0453,0.0317,0.0227,0.01,-0.0049,-0.005,-0.0165,-0.02,-0.0146,-0.0142,-0.0178,-0.0176,-0.0181,-0.018,-0.018,-0.0179,0,0.022,0.0244,0.0292,0.0342,0.0366,0.0406,0.0481,0.0517,0.0536,0.0581,0.0585,0.0531,0.0417,0.0271,0.0091,-0.0015,-0.0162,-0.022,-0.014,-0.0169,-0.0258,-0.0253,-0.0322,-0.0323,-0.0323,-0.0324,-0.0325,0,0.0226,0.025,0.0322,0.0358,0.0385,0.0451,0.0501,0.055,0.0593,0.0625,0.0644,0.0564,0.0505,0.0267,0.0093,-0.0144,-0.0186,-0.0264,-0.0269,-0.0245,-0.0273,-0.0266,-0.026,-0.0326,-0.0326,-0.0326,-0.0326,0,0.0235,0.026,0.0302,0.0378,0.0438,0.0513,0.0586,0.0627,0.0685,0.0703,0.0705,0.0595,0.0468,0.0277,0.0096,-0.0082,-0.0211,-0.0273,-0.0273,-0.0278,-0.0251,-0.0276,-0.0269,-0.0329,-0.0329,-0.0329,-0.0328,0,0.0238,0.0267,0.0323,0.0393,0.0472,0.0551,0.0595,0.0655,0.0708,0.0748,0.0741,0.062,0.0553,0.0308,0.0136,-0.003,-0.0083,-0.0146,-0.0153,-0.0153,-0.0083,-0.0023,-0.0055,0,0,0,0,0,0.0237,0.0272,0.0332,0.0415,0.0496,0.0547,0.0641,0.0679,0.074,0.0755,0.0758,0.0646,0.0421,0.0323,0.0157,0.0083,-0.014,-0.0123,-0.0223,-0.0344,-0.0341,-0.029,0,0,0,0,0,0,0.0237,0.0288,0.0325,0.0424,0.0482,0.0579,0.0643,0.0684,0.0699,0.0734,0.0624,0.0591,0.037,0.052,0.0151,0.0099,0.0008,-0.0221,-0.0225,-0.0346,-0.0343,-0.0341,-0.0287,0,0,0,0,0]}]]